(292058) = 2006 RL8

Discovered at Catalina on 2006-09-12 by CSS.

Orbit

Orbit type: Main Belt

Note: WebGL enabled browser required.

epoch2023-09-13.0
epoch JD2460200.5
perihelion date2019-11-25.50973
perihelion JD2458813.00973
argument of perihelion (°)216.35163
ascending node (°)165.20874
inclination (°)8.12606
eccentricity0.1137472
perihelion distance (AU)2.3426512
Tisserand w.r.t. Jupiter3.4
ΔV w.r.t. Earth (km/sec)9.9
semimajor axis (AU)2.6433217
mean anomaly (°)318.20629
mean daily motion (°/day)0.22933950
aphelion distance (AU)2.944
period (years)4.3
P-vector [x]0.92851151
P-vector [y]0.36520575
P-vector [z]0.06701599
Q-vector [x]-0.36954584
Q-vector [y]0.89139764
Q-vector [z]0.26238545
absolute magnitude16.9
phase slope0.15
uncertainty0
referenceMPO 779094
observations used347
oppositions14
arc length (days)7675
first opposition used2002
last opposition used2023
residual rms (arc-secs)0.69
perturbers coarse indicatorM-v
perturbers precise indicator003Ek
first observation date used2002-10-09.0
last observation date used2023-10-14.0
computer nameMPCLINUX
JD of orbit computation2456406.163337
perihelion JD uncertainty (days)1.7794E-04
argument of perihelion uncertainty (°)6.5372E-05
ascending node uncertainty (°)5.7157E-05
inclination uncertainty (°)8.7866E-06
eccentricity uncertainty 9.5074E-08
perihelion distance uncertainty (AU)2.3848E-07
Minimum Orbit Intersection Distances (in AU)
for orbit epoch: 2460200.5, reference: E2023-TP1
Mercury1.99802
Venus1.61808
Earth1.34902
Mars0.92588
Jupiter2.51927
Saturn6.46502
Uranus15.5494
Neptune27.4984

Observations

355 total observations over interval: 2002 10 09.37448 – 2023 10 14.164219
These data are available for download (format description).

Date (UT) J2000 RA J2000 Dec Magn Location Ref
2002 10 09.37448 02 40 46.38 +05 37 11.5 19.9 R 644 – Palomar Mountain/NEAT MPS 386291
2002 10 09.39884 02 40 45.50 +05 37 00.3 19.8 R 644 – Palomar Mountain/NEAT MPS 386291
2002 10 09.41909 02 40 44.74 +05 36 50.9 19.8 R 644 – Palomar Mountain/NEAT MPS 386291
2002 10 15.23452 02 37 03.96 +04 51 20.2 20.0   644 – Palomar Mountain/NEAT MPS 182519
2002 10 15.31008 02 37 00.71 +04 50 44.5 19.8   644 – Palomar Mountain/NEAT MPS 182519
2002 10 15.37310 02 36 57.96 +04 50 15.0 19.6   644 – Palomar Mountain/NEAT MPS 182519
2002 10 29.32209 02 26 07.77 +03 05 56.6 19.3 R 644 – Palomar Mountain/NEAT MPS 386291
2002 10 29.34778 02 26 06.48 +03 05 47.3 19.1 R 644 – Palomar Mountain/NEAT MPS 386291
2002 10 29.38622 02 26 04.49 +03 05 31.3 19.5 R 644 – Palomar Mountain/NEAT MPS 386291
2002 10 31.25527 02 24 31.90 +02 52 57.0 19.1   704 – Lincoln Laboratory ETS, New Mexico MPS 182519
2002 10 31.27235 02 24 31.00 +02 52 50.4 19.7   704 – Lincoln Laboratory ETS, New Mexico MPS 182519
2002 10 31.28946 02 24 30.18 +02 52 44.4 19.5   704 – Lincoln Laboratory ETS, New Mexico MPS 182519
2002 10 31.32366 02 24 28.40 +02 52 30.6 19.8   704 – Lincoln Laboratory ETS, New Mexico MPS 182519
2004 02 14.46235 10 22 11.94 +06 55 10.9 21.7 V 691 – Steward Observatory, Kitt Peak-Spacewatch MPS 182519
2004 02 14.48938 10 22 10.60 +06 55 23.1 20.9 V 691 – Steward Observatory, Kitt Peak-Spacewatch MPS 182519
2004 02 14.51727 10 22 09.21 +06 55 35.2 21.0 V 691 – Steward Observatory, Kitt Peak-Spacewatch MPS 182519
2005 05 09.28202 15 59 31.02 -08 36 57.5 21.0 V 691 – Steward Observatory, Kitt Peak-Spacewatch MPS 182824
2005 05 09.29988 15 59 30.15 -08 36 52.4 20.8 V 691 – Steward Observatory, Kitt Peak-Spacewatch MPS 182824
2005 05 09.31754 15 59 29.26 -08 36 47.7 21.0 V 691 – Steward Observatory, Kitt Peak-Spacewatch MPS 182824
2005 05 20.26460 15 50 09.24 -07 51 47.4 20.8 V G96 – Mt. Lemmon Survey MPS 182824
2005 05 20.27123 15 50 08.88 -07 51 46.1 20.5 V G96 – Mt. Lemmon Survey MPS 182824
2005 05 20.27781 15 50 08.52 -07 51 44.1 20.0 V G96 – Mt. Lemmon Survey MPS 182824
2005 05 20.28444 15 50 08.16 -07 51 44.5 20.6 V G96 – Mt. Lemmon Survey MPS 182824
2005 06 05.21867 15 36 47.94 -07 08 05.5 21.2 V 691 – Steward Observatory, Kitt Peak-Spacewatch MPS 182519
2005 06 05.23607 15 36 47.10 -07 08 04.0 21.3 V 691 – Steward Observatory, Kitt Peak-Spacewatch MPS 182519
2005 06 05.25691 15 36 46.12 -07 08 01.9 20.8 V 691 – Steward Observatory, Kitt Peak-Spacewatch MPS 182519
2006 08 28.33307 23 38 25.58 -02 30 22.8 19.8 V 703 – Catalina Sky Survey MPS 179482
2006 08 28.34110 23 38 25.29 -02 30 27.9 20.3 V 703 – Catalina Sky Survey MPS 179482
2006 08 28.34917 23 38 25.00 -02 30 30.7 20.7 V 703 – Catalina Sky Survey MPS 179482
2006 08 28.35721 23 38 24.64 -02 30 34.8 20.5 V 703 – Catalina Sky Survey MPS 179482
2006 09 12.37837 23 28 10.23 -04 44 09.8 19.5 V 703 – Catalina Sky Survey MPS 179482
2006 09 12.38577 23 28 09.94 -04 44 14.8 19.2 V 703 – Catalina Sky Survey MPS 179482
2006 09 12.39315 23 28 09.51 -04 44 18.4 20.0 V 703 – Catalina Sky Survey MPS 179482
2006 09 12.40052 23 28 09.19 -04 44 21.3 19.6 V 703 – Catalina Sky Survey MPS 179482
2006 09 14.28775 23 26 45.47 -05 01 48.3 18.8 R 644 – Palomar Mountain/NEAT MPS 179482
2006 09 14.30845 23 26 44.56 -05 02 00.2 19.4 R 644 – Palomar Mountain/NEAT MPS 179482
2006 09 14.33648 23 26 43.25 -05 02 16.0 19.6 R 644 – Palomar Mountain/NEAT MPS 179482
2006 09 19.21423 23 23 07.03 -05 46 53.0 19.2 R 699 – Lowell Observatory-LONEOS MPS 179482
2006 09 19.23800 23 23 05.90 -05 47 07.8   699 – Lowell Observatory-LONEOS MPS 179482
2006 09 19.26175 23 23 04.80 -05 47 19.4   699 – Lowell Observatory-LONEOS MPS 179482
2006 09 19.28552 23 23 03.82 -05 47 32.6   699 – Lowell Observatory-LONEOS MPS 179482
2006 09 30.23698 23 15 36.79 -07 20 15.2 20.0 V G96 – Mt. Lemmon Survey MPS 182824
2006 09 30.24423 23 15 36.46 -07 20 18.4 19.9 V G96 – Mt. Lemmon Survey MPS 182824
2006 09 30.25153 23 15 36.21 -07 20 21.9 19.9 V G96 – Mt. Lemmon Survey MPS 182824
2006 09 30.25867 23 15 35.92 -07 20 25.2 20.1 V G96 – Mt. Lemmon Survey MPS 182824
2006 10 02.20799 23 14 26.95 -07 35 10.5 19.7 V G96 – Mt. Lemmon Survey MPS 182824
2006 10 02.21349 23 14 26.73 -07 35 13.1 20.1 V G96 – Mt. Lemmon Survey MPS 182824
2006 10 02.21902 23 14 26.52 -07 35 15.7 19.9 V G96 – Mt. Lemmon Survey MPS 182824
2006 10 02.22466 23 14 26.30 -07 35 17.8 19.7 V G96 – Mt. Lemmon Survey MPS 182824
2009 04 02.36005 14 25 31.58 -05 48 01.1 20.9 V 691 – Steward Observatory, Kitt Peak-Spacewatch MPS 282576
2009 04 02.37775 14 25 30.88 -05 47 54.0 20.9 V 691 – Steward Observatory, Kitt Peak-Spacewatch MPS 282576
2009 04 02.39544 14 25 30.15 -05 47 47.7 20.9 V 691 – Steward Observatory, Kitt Peak-Spacewatch MPS 282576
2009 04 21.20646 14 11 32.73 -03 44 42.7 20.6 V 691 – Steward Observatory, Kitt Peak-Spacewatch MPS 284402
2009 04 21.22412 14 11 31.86 -03 44 36.8 20.7 V 691 – Steward Observatory, Kitt Peak-Spacewatch MPS 284402
2009 04 21.24178 14 11 30.98 -03 44 29.8 20.9 V 691 – Steward Observatory, Kitt Peak-Spacewatch MPS 284402
2011 12 02.56316 06 20 02.075 +10 37 13.88 20.4 r F51 – Pan-STARRS 1, Haleakala MPS 403761
2011 12 02.57353 06 20 01.584 +10 37 13.02 20.4 r F51 – Pan-STARRS 1, Haleakala MPS 403761
2011 12 06.53151 06 16 53.682 +10 32 34.89 20.2 i F51 – Pan-STARRS 1, Haleakala MPS 404201
2011 12 06.54637 06 16 52.891 +10 32 34.03 20.2 i F51 – Pan-STARRS 1, Haleakala MPS 404201
2013 03 12.32493 12 44 49.81 -00 32 36.0 20.7 V G96 – Mt. Lemmon Survey MPS 460429
2013 03 12.33502 12 44 49.38 -00 32 31.7 21.0 V G96 – Mt. Lemmon Survey MPS 460429
2013 03 12.34509 12 44 48.91 -00 32 26.8 21.0 V G96 – Mt. Lemmon Survey MPS 460430
2013 03 12.35527 12 44 48.55 -00 32 22.5 21.0 V G96 – Mt. Lemmon Survey MPS 460430
2013 03 19.48757 12 39 41.011 +00 21 05.59 20.7 w F51 – Pan-STARRS 1, Haleakala MPS 461556
2013 03 19.50290 12 39 40.287 +00 21 12.56 20.7 w F51 – Pan-STARRS 1, Haleakala MPS 461556
2013 03 19.51834 12 39 39.569 +00 21 19.68 20.7 w F51 – Pan-STARRS 1, Haleakala MPS 461556
2013 03 19.53376 12 39 38.840 +00 21 26.80 21.0 w F51 – Pan-STARRS 1, Haleakala MPS 461556
2013 04 01.26877 12 29 40.27 +01 57 37.0 20.6 V G96 – Mt. Lemmon Survey MPS 462578
2013 04 01.27813 12 29 39.80 +01 57 40.6 20.2 V G96 – Mt. Lemmon Survey MPS 462578
2013 04 01.28765 12 29 39.33 +01 57 45.3 20.8 V G96 – Mt. Lemmon Survey MPS 462578
2013 04 01.29723 12 29 38.83 +01 57 49.6 20.2 V G96 – Mt. Lemmon Survey MPS 462578
2015 10 10.58958 03 45 24.794 +09 05 23.15 20.4 w F51 – Pan-STARRS 1, Haleakala MPS 635037
2015 10 10.60158 03 45 24.571 +09 05 18.67 20.4 w F51 – Pan-STARRS 1, Haleakala MPS 635037
2015 10 10.61355 03 45 24.363 +09 05 14.14 20.4 w F51 – Pan-STARRS 1, Haleakala MPS 635037
2015 10 18.45369 03 42 28.370 +08 14 39.93 20.3 w F51 – Pan-STARRS 1, Haleakala MPS 641307
2015 10 18.46434 03 42 28.035 +08 14 35.72 20.3 w F51 – Pan-STARRS 1, Haleakala MPS 641307
2015 10 18.47502 03 42 27.701 +08 14 31.59 20.4 w F51 – Pan-STARRS 1, Haleakala MPS 641307
2015 10 18.48571 03 42 27.364 +08 14 27.39 20.2 w F51 – Pan-STARRS 1, Haleakala MPS 641307
2015 10 19.44774 03 41 58.724 +08 08 06.46 20.2 w F51 – Pan-STARRS 1, Haleakala MPS 641307
2015 10 19.45817 03 41 58.380 +08 08 02.32 20.1 w F51 – Pan-STARRS 1, Haleakala MPS 641307
2015 10 19.46863 03 41 58.032 +08 07 58.13 20.2 w F51 – Pan-STARRS 1, Haleakala MPS 641307
2015 10 21.49928 03 40 52.536 +07 54 31.78 20.2 w F51 – Pan-STARRS 1, Haleakala MPS 641307
2015 10 21.50997 03 40 52.150 +07 54 27.54 20.2 w F51 – Pan-STARRS 1, Haleakala MPS 641307
2015 10 21.52058 03 40 51.760 +07 54 23.26 20.2 w F51 – Pan-STARRS 1, Haleakala MPS 641307
2015 10 21.53118 03 40 51.379 +07 54 19.03 20.1 w F51 – Pan-STARRS 1, Haleakala MPS 641307
2015 10 23.39632 03 39 45.77 +07 41 56.7 19.9 V 703 – Catalina Sky Survey MPS 641307
2015 10 23.40086 03 39 45.67 +07 41 54.0 20.3 V 703 – Catalina Sky Survey MPS 641307
2015 10 23.40990 03 39 45.47 +07 41 50.3 20.1 V 703 – Catalina Sky Survey MPS 641307
2015 11 01.53558 03 33 20.377 +06 42 38.80 19.6 i F51 – Pan-STARRS 1, Haleakala MPS 644797
2015 11 01.54791 03 33 19.775 +06 42 34.12 19.7 i F51 – Pan-STARRS 1, Haleakala MPS 644797
